TimeCDT,TemperatureF,Dew PointF,Humidity,Sea Level PressureIn,VisibilityMPH,Wind Direction,Wind SpeedMPH,Gust SpeedMPH,PrecipitationIn,Events,Conditions,WindDirDegrees,DateUTC
12:52 AM,72.0,66.9,84,29.74,-9999.0,SE,4.6,-,N/A,,Unknown,130,2013-08-24 05:52:00
1:52 AM,69.1,66.0,90,29.74,-9999.0,SSE,6.9,-,N/A,,Unknown,160,2013-08-24 06:52:00
2:52 AM,69.1,66.9,93,29.73,-9999.0,SSE,4.6,-,N/A,,Unknown,150,2013-08-24 07:52:00
3:52 AM,69.1,66.9,93,29.72,-9999.0,ESE,6.9,-,N/A,,Unknown,110,2013-08-24 08:52:00
4:52 AM,69.1,66.9,93,29.72,-9999.0,East,4.6,-,N/A,,Unknown,100,2013-08-24 09:52:00
5:52 AM,68.0,66.9,96,29.71,-9999.0,East,3.5,-,N/A,,Unknown,100,2013-08-24 10:52:00
6:52 AM,66.9,66.0,97,29.71,-9999.0,Calm,Calm,-,N/A,,Unknown,0,2013-08-24 11:52:00
7:52 AM,69.1,68.0,96,29.72,-9999.0,Calm,Calm,-,N/A,,Unknown,0,2013-08-24 12:52:00
8:52 AM,72.0,69.1,91,29.71,-9999.0,East,3.5,-,N/A,,Unknown,90,2013-08-24 13:52:00
9:52 AM,75.9,68.0,76,29.70,-9999.0,East,3.5,-,N/A,,Unknown,80,2013-08-24 14:52:00
10:52 AM,79.0,66.0,64,29.73,-9999.0,West,3.5,-,N/A,,Unknown,270,2013-08-24 15:52:00
11:52 AM,69.1,66.9,93,29.73,-9999.0,North,16.1,-,0.09,,Unknown,350,2013-08-24 16:52:00
11:59 AM,69.1,64.9,87,29.76,-9999.0,Variable,6.9,21.9,0.01,,Unknown,0,2013-08-24 16:59:00
12:52 PM,71.1,68.0,90,29.78,-9999.0,Calm,Calm,-,0.01,,Unknown,0,2013-08-24 17:52:00
1:52 PM,77.0,66.0,69,29.76,-9999.0,Calm,Calm,-,N/A,,Unknown,0,2013-08-24 18:52:00
2:52 PM,82.9,66.0,56,29.75,-9999.0,South,5.8,-,N/A,,Unknown,170,2013-08-24 19:52:00
3:52 PM,84.9,61.0,44,29.74,-9999.0,South,8.1,-,N/A,,Unknown,180,2013-08-24 20:52:00
4:52 PM,87.1,64.9,48,29.73,-9999.0,South,5.8,-,N/A,,Unknown,170,2013-08-24 21:52:00
5:52 PM,87.1,64.9,48,29.75,-9999.0,West,6.9,-,N/A,,Unknown,280,2013-08-24 22:52:00
6:52 PM,86.0,64.9,49,29.75,-9999.0,WNW,4.6,-,N/A,,Unknown,290,2013-08-24 23:52:00
7:52 PM,82.9,66.0,56,29.75,-9999.0,Calm,Calm,-,N/A,,Unknown,0,2013-08-25 00:52:00
8:52 PM,79.0,64.9,62,29.76,-9999.0,Calm,Calm,-,N/A,,Unknown,0,2013-08-25 01:52:00
9:52 PM,73.0,68.0,84,29.78,-9999.0,Calm,Calm,-,N/A,,Unknown,0,2013-08-25 02:52:00
10:52 PM,73.9,68.0,82,29.79,-9999.0,Calm,Calm,-,N/A,,Unknown,0,2013-08-25 03:52:00
11:52 PM,70.0,66.9,90,29.82,-9999.0,NW,6.9,-,N/A,,Unknown,320,2013-08-25 04:52:00